"Pseudo-MPEC" for P10OV8C

Created 2019 Jun 15 20:07:54 UT using Find_Orb

Click here for an explanation of pseudo-MPECs

 
 Astrometry: 
     P10OV8C  C2019 06 10v5QG#o0MP!RviC\AstrometrySW6LD/LW;_:rdV:u,)M-,B=4LfaF51
     P10OV8C  C2019 06 10c9;uOAs_n+T-Eredacted;'KUuGaclick$NherendJfxv*xF\7;WF51
     P10OV8C  C2019 06 10A\*Z*547[ocjjd,H83b@e8K^6K@(fQIH[)-qqD,Aav1K(Z=]G%#2F51
     P10OV8C  C2019 06 10=(p.-jjsA9vWv)NG'4hifordTnGh2explanation*57a!/DL=Qa%F51

Station data:
(F51) Pan-STARRS 1, Haleakala  (N20.707235 W156.255910)  US/Hawaii.
   Observers N. Primak, A. Schultz, S. Watters, J. Thiel, T. Goggia. Measurer
   PS1 Science Consortium. 1.8-m Ritchey-Chrétien + CCD.

Orbital elements:  P10OV8C
   Perihelion 2019 Mar 6.855847 +/- 103 TT = 20:32:25 (JD 2458549.355847)
Epoch 2019 Jun 11.0 TT = JDT 2458645.5   Earth MOID: 0.0208   Ve: 0.0981
M 100.71918862 +/- 90               (J2000 ecliptic)          AutoNEOCP
n   1.04758517 +/- 0.888            Peri.   40.80620 +/- 80
a   0.96015899 +/- 0.543            Node   112.04467 +/- 26
e   0.1494901 +/- 0.222             Incl.    4.17338 +/- 48
P   0.94/343.64d           H 22.7   G  0.15   U 12.7  SR
q 0.81662464 +/- 0.617    Q 1.10369334 +/- 20.4
From 4 observations 2019 June 10 (23.5 min); mean residual 0".04
Residuals in arcseconds: 
190610 F51  .05-  .03-    190610 F51  .03+  .02+    
190610 F51  .07+  .03+    190610 F51  .04-  .02-    

Ephemerides (geocentric):
Date (UTC) HH   RA              Dec         delta   r     elong  mag " sig PA
---- -- -- --  -------------   -----------  ------ ------ -----  --- ---- ---
2019 06 15 20  23 43 19.704   +06 09 56.34  .17864 1.0177  85.6 22.0  44d   4
2019 06 15 21  23 43 23.101   +06 09 24.58  .17862 1.0178  85.6 22.0  44d   4
2019 06 15 22  23 43 26.498   +06 08 52.81  .17860 1.0179  85.6 22.0  44d   4
2019 06 15 23  23 43 29.896   +06 08 21.03  .17857 1.0180  85.7 22.0  45d   4
2019 06 16 00  23 43 33.295   +06 07 49.25  .17855 1.0181  85.7 22.0  45d   4
2019 06 16 01  23 43 36.694   +06 07 17.45  .17853 1.0182  85.7 22.0  45d   4
2019 06 16 02  23 43 40.094   +06 06 45.64  .17851 1.0183  85.8 22.0  45d   4
2019 06 16 03  23 43 43.495   +06 06 13.83  .17849 1.0184  85.8 22.0  45d   4
2019 06 16 04  23 43 46.896   +06 05 42.00  .17846 1.0184  85.8 22.0  45d   4
2019 06 16 05  23 43 50.298   +06 05 10.17  .17844 1.0185  85.8 22.0  45d   4
2019 06 16 06  23 43 53.701   +06 04 38.32  .17842 1.0186  85.9 22.0  45d   4
2019 06 16 07  23 43 57.105   +06 04 06.46  .17840 1.0187  85.9 22.0  45d   4
2019 06 16 08  23 44 00.509   +06 03 34.60  .17837 1.0188  85.9 22.0  45d   4
2019 06 16 09  23 44 03.913   +06 03 02.72  .17835 1.0189  86.0 22.0  45d   4
2019 06 16 10  23 44 07.319   +06 02 30.83  .17833 1.0190  86.0 22.0  45d   4
2019 06 16 11  23 44 10.724   +06 01 58.93  .17831 1.0191  86.0 22.0  45d   4
2019 06 16 12  23 44 14.131   +06 01 27.03  .17828 1.0192  86.1 22.0  46d   4
2019 06 16 13  23 44 17.538   +06 00 55.11  .17826 1.0193  86.1 22.0  46d   4
2019 06 16 14  23 44 20.946   +06 00 23.18  .17824 1.0194  86.1 22.0  46d   4
2019 06 16 15  23 44 24.354   +05 59 51.24  .17821 1.0195  86.1 22.0  46d   4
2019 06 16 16  23 44 27.763   +05 59 19.28  .17819 1.0196  86.2 22.0  46d   4
2019 06 16 17  23 44 31.173   +05 58 47.32  .17817 1.0197  86.2 22.0  47d   4
2019 06 16 18  23 44 34.583   +05 58 15.35  .17815 1.0198  86.2 22.0  47d   4
2019 06 16 19  23 44 37.994   +05 57 43.36  .17812 1.0199  86.3 22.0  47d   4
2019 06 16 20  23 44 41.405   +05 57 11.37  .17810 1.0199  86.3 22.0  47d   4
2019 06 16 21  23 44 44.817   +05 56 39.36  .17808 1.0200  86.3 22.0  47d   4
2019 06 16 22  23 44 48.229   +05 56 07.34  .17805 1.0201  86.4 22.0  47d   4
2019 06 16 23  23 44 51.642   +05 55 35.31  .17803 1.0202  86.4 22.0  48d   4
2019 06 17 00  23 44 55.056   +05 55 03.27  .17800 1.0203  86.4 22.0  48d   4
2019 06 17 01  23 44 58.470   +05 54 31.22  .17798 1.0204  86.4 22.0  48d   4
2019 06 17 02  23 45 01.884   +05 53 59.15  .17796 1.0205  86.5 22.0  47d   6
2019 06 17 03  23 45 05.299   +05 53 27.07  .17793 1.0206  86.5 22.0  47d   6
2019 06 17 04  23 45 08.715   +05 52 54.98  .17791 1.0207  86.5 22.0  48d   6
2019 06 17 05  23 45 12.131   +05 52 22.88  .17789 1.0208  86.6 22.0  48d   6
2019 06 17 06  23 45 15.548   +05 51 50.77  .17786 1.0209  86.6 22.0  48d   6
2019 06 17 07  23 45 18.965   +05 51 18.65  .17784 1.0210  86.6 22.0  48d   6
2019 06 17 08  23 45 22.382   +05 50 46.51  .17781 1.0211  86.7 22.0  48d   6
2019 06 17 09  23 45 25.801   +05 50 14.36  .17779 1.0212  86.7 22.0  49d   6
2019 06 17 10  23 45 29.219   +05 49 42.20  .17776 1.0213  86.7 22.0  49d   6
2019 06 17 11  23 45 32.638   +05 49 10.02  .17774 1.0213  86.7 22.0  49d   6
2019 06 17 12  23 45 36.058   +05 48 37.84  .17772 1.0214  86.8 21.9  49d   6
2019 06 17 13  23 45 39.478   +05 48 05.64  .17769 1.0215  86.8 21.9  49d   6
2019 06 17 14  23 45 42.898   +05 47 33.42  .17767 1.0216  86.8 21.9  49d   6
2019 06 17 15  23 45 46.319   +05 47 01.20  .17764 1.0217  86.9 21.9  49d   6
2019 06 17 16  23 45 49.741   +05 46 28.96  .17762 1.0218  86.9 21.9  50d   6
2019 06 17 17  23 45 53.162   +05 45 56.71  .17759 1.0219  86.9 21.9  50d   6
2019 06 17 18  23 45 56.585   +05 45 24.45  .17757 1.0220  87.0 21.9  50d   5
2019 06 17 19  23 46 00.007   +05 44 52.17  .17754 1.0221  87.0 21.9  50d   5